GFSGBSN_prec_precacc24_225.txt.gz
Total_Precipitation_Accumulation
0.10 0.11 0.11 0.11 0.10 0.10 0.08 0.07 0.07 0.06 0.04 0.03 0.03 0.02 0.02 0.02 0.02 0.01 0.01 0.01 0.00 0.00 0.00 0.00 0.00 0.00 0.13 0.26 0.07 0.00 0.00 0.00 0.00 0.00 0.00 0.00 0.00 0.00 0.00 0.00 0.00 0.00 0.00 0.00 0.00 0.00 0.00
0.30 0.23 0.20 0.17 0.15 0.11 0.08 0.07 0.06 0.06 0.05 0.03 0.03 0.02 0.02 0.02 0.02 0.02 0.02 0.02 0.02 0.01 0.01 0.01 0.01 0.10 0.45 0.47 0.02 0.00 0.00 0.00 0.00 0.00 0.00 0.00 0.00 0.00 0.00 0.00 0.00 0.00 0.00 0.00 0.00 0.00 0.00
0.29 0.26 0.20 0.15 0.11 0.09 0.09 0.09 0.09 0.08 0.08 0.06 0.05 0.04 0.02 0.03 0.03 0.02 0.02 0.02 0.02 0.02 0.02 0.03 0.05 0.31 0.89 0.21 0.00 0.00 0.00 0.00 0.00 0.00 0.00 0.00 0.00 0.00 0.01 0.01 0.00 0.00 0.01 0.01 0.00 0.00 0.00
0.29 0.29 0.24 0.20 0.15 0.12 0.11 0.07 0.04 0.03 0.04 0.03 0.03 0.03 0.03 0.03 0.03 0.03 0.03 0.02 0.02 0.02 0.04 0.06 0.19 0.91 1.36 0.03 0.00 0.00 0.00 0.00 0.00 0.00 0.00 0.00 0.00 0.02 0.04 0.04 0.04 0.04 0.03 0.02 0.00 0.00 0.00
0.24 0.19 0.18 0.19 0.16 0.12 0.08 0.05 0.04 0.04 0.06 0.05 0.05 0.04 0.03 0.03 0.03 0.03 0.04 0.06 0.08 0.12 0.17 0.33 0.94 1.27 0.79 0.06 0.03 0.00 0.00 0.00 0.00 0.00 0.00 0.01 0.04 0.10 0.13 0.12 0.13 0.11 0.04 0.01 0.00 0.00 0.00
0.22 0.16 0.11 0.07 0.04 0.03 0.03 0.04 0.04 0.06 0.08 0.11 0.12 0.11 0.09 0.07 0.06 0.05 0.08 0.22 0.41 0.46 0.40 0.69 1.47 1.56 0.57 0.11 0.00 0.00 0.00 0.00 0.01 0.03 0.05 0.09 0.19 0.24 0.26 0.21 0.10 0.05 0.03 0.00 0.00 0.00 0.00
0.07 0.05 0.04 0.03 0.02 0.03 0.04 0.03 0.03 0.05 0.07 0.09 0.09 0.11 0.10 0.10 0.11 0.16 0.32 0.61 0.78 0.64 0.44 0.26 0.33 0.17 0.01 0.00 0.02 0.01 0.00 0.09 0.22 0.48 0.24 0.09 0.25 0.46 0.14 0.03 0.01 0.01 0.01 0.00 0.00 0.00 0.00
0.01 0.01 0.01 0.02 0.03 0.03 0.04 0.04 0.03 0.03 0.05 0.06 0.06 0.06 0.06 0.05 0.07 0.15 0.32 0.51 0.44 0.67 0.70 0.11 0.01 0.02 0.00 0.01 0.15 0.25 0.22 0.48 0.62 0.69 0.43 0.84 0.63 0.08 0.02 0.01 0.02 0.03 0.02 0.01 0.00 0.00 0.01
0.00 0.00 0.01 0.02 0.03 0.04 0.05 0.05 0.04 0.04 0.04 0.05 0.05 0.06 0.06 0.06 0.10 0.16 0.20 0.31 0.35 0.80 2.02 0.81 0.03 0.01 0.00 0.07 0.04 0.08 0.20 0.42 0.57 0.61 0.66 0.62 0.42 0.12 0.08 0.11 0.12 0.05 0.02 0.01 0.01 0.01 0.00
0.00 0.00 0.00 0.01 0.02 0.02 0.03 0.04 0.05 0.06 0.07 0.07 0.08 0.09 0.10 0.10 0.11 0.11 0.19 0.25 0.29 0.74 2.58 1.64 0.04 0.00 0.00 0.05 0.08 0.01 0.09 0.19 0.48 0.75 0.74 0.97 0.40 0.22 0.42 0.48 0.43 0.36 0.11 0.02 0.02 0.11 0.05
0.01 0.00 0.00 0.00 0.01 0.02 0.02 0.02 0.02 0.03 0.04 0.05 0.04 0.04 0.04 0.05 0.07 0.09 0.24 0.25 0.41 1.18 2.88 1.15 0.03 0.01 0.02 0.06 0.07 0.02 0.02 0.26 0.31 0.28 0.60 1.18 0.65 0.32 0.40 0.48 0.28 0.18 0.07 0.07 0.15 0.23 0.24
0.00 0.00 0.00 0.00 0.01 0.01 0.01 0.02 0.02 0.01 0.01 0.02 0.03 0.03 0.02 0.03 0.05 0.09 0.13 0.23 0.82 2.12 2.30 0.54 0.02 0.05 0.19 0.19 0.12 0.11 0.11 0.27 0.26 0.41 0.47 0.31 0.15 0.25 0.41 0.49 0.60 0.64 0.73 0.66 0.56 0.59 0.99
0.01 0.00 0.01 0.01 0.01 0.01 0.01 0.01 0.01 0.01 0.02 0.02 0.02 0.02 0.03 0.03 0.04 0.14 0.13 0.37 1.39 1.87 0.58 0.11 0.06 0.12 0.17 0.24 0.31 0.36 0.48 0.53 0.75 0.95 0.60 0.27 0.11 0.03 0.12 0.30 0.42 0.82 1.35 1.88 1.77 1.45 1.25
0.01 0.01 0.01 0.01 0.01 0.01 0.01 0.02 0.02 0.02 0.01 0.01 0.01 0.00 0.01 0.02 0.02 0.17 0.30 0.76 1.41 0.47 0.09 0.05 0.04 0.05 0.09 0.20 0.29 0.30 0.56 0.85 0.98 1.04 1.17 0.82 0.39 0.06 0.07 0.20 0.34 0.30 0.65 1.48 1.73 0.99 0.43
0.01 0.01 0.01 0.01 0.02 0.01 0.01 0.02 0.02 0.02 0.03 0.03 0.01 0.00 0.01 0.03 0.01 0.09 0.51 0.85 0.47 0.21 0.18 0.11 0.04 0.21 0.35 0.57 0.65 0.39 0.39 0.71 1.31 2.03 2.65 2.55 1.85 0.70 0.29 0.18 0.27 0.32 0.46 0.59 0.86 0.84 1.03
0.02 0.02 0.02 0.03 0.02 0.03 0.04 0.04 0.02 0.03 0.07 0.06 0.00 0.00 0.04 0.01 0.05 0.08 0.42 0.36 0.12 0.21 0.42 0.40 0.35 0.42 0.40 0.42 0.72 0.99 1.00 1.28 1.31 1.49 1.62 2.13 1.73 1.37 1.20 0.89 0.64 0.57 0.61 0.97 1.75 2.42 2.00
0.02 0.02 0.02 0.02 0.02 0.03 0.05 0.06 0.06 0.08 0.11 0.06 0.02 0.03 0.09 0.00 0.15 0.26 0.31 0.10 0.04 0.03 0.11 0.33 0.50 0.42 0.34 0.29 0.41 0.45 0.52 0.62 0.65 0.90 1.02 1.22 1.34 0.94 0.73 1.13 1.39 1.53 1.52 1.80 2.18 2.61 1.88
0.03 0.04 0.04 0.04 0.03 0.04 0.05 0.05 0.08 0.15 0.15 0.07 0.06 0.07 0.09 0.12 0.19 0.20 0.16 0.09 0.05 0.02 0.05 0.15 0.17 0.19 0.23 0.36 0.25 0.27 0.28 0.27 0.16 0.18 0.25 0.30 0.66 0.43 0.33 0.34 0.42 0.63 1.15 1.84 2.28 1.88 1.41
0.04 0.04 0.03 0.05 0.06 0.05 0.05 0.05 0.06 0.13 0.21 0.07 0.09 0.04 0.12 0.26 0.20 0.13 0.10 0.06 0.04 0.02 0.03 0.05 0.10 0.20 0.32 0.39 0.27 0.18 0.36 0.24 0.17 0.21 0.25 0.25 0.39 0.32 0.17 0.11 0.16 0.30 0.38 0.57 0.90 1.12 1.00
0.03 0.04 0.04 0.04 0.04 0.05 0.05 0.07 0.07 0.10 0.29 0.20 0.12 0.08 0.10 0.16 0.17 0.21 0.19 0.10 0.06 0.04 0.06 0.12 0.11 0.13 0.11 0.08 0.17 0.14 0.14 0.21 0.12 0.15 0.25 0.41 0.55 0.35 0.26 0.25 0.22 0.20 0.21 0.30 0.40 0.54 0.48
0.03 0.03 0.02 0.03 0.02 0.03 0.04 0.04 0.06 0.14 0.34 0.46 0.44 0.18 0.09 0.13 0.13 0.17 0.23 0.19 0.13 0.11 0.12 0.16 0.20 0.22 0.29 0.20 0.09 0.07 0.13 0.11 0.06 0.13 0.18 0.33 0.32 0.17 0.08 0.04 0.02 0.01 0.03 0.08 0.13 0.10 0.13
0.02 0.01 0.01 0.01 0.02 0.02 0.04 0.07 0.11 0.32 0.39 0.50 0.51 0.21 0.14 0.08 0.08 0.14 0.24 0.18 0.12 0.08 0.11 0.05 0.11 0.14 0.23 0.31 0.25 0.24 0.17 0.11 0.06 0.06 0.08 0.17 0.16 0.04 0.04 0.01 0.01 0.03 0.01 0.00 0.02 0.03 0.04
0.01 0.01 0.01 0.01 0.01 0.02 0.04 0.06 0.08 0.23 0.42 0.48 0.36 0.24 0.32 0.14 0.07 0.16 0.17 0.15 0.12 0.14 0.08 0.07 0.09 0.08 0.08 0.04 0.04 0.04 0.01 0.01 0.00 0.01 0.03 0.07 0.13 0.15 0.10 0.02 0.04 0.06 0.00 0.00 0.00 0.00 0.01
0.01 0.01 0.01 0.02 0.02 0.03 0.05 0.05 0.07 0.15 0.44 0.36 0.20 0.25 0.49 0.29 0.14 0.15 0.14 0.16 0.12 0.11 0.13 0.03 0.06 0.09 0.06 0.04 0.04 0.01 0.01 0.00 0.00 0.00 0.05 0.11 0.13 0.18 0.11 0.07 0.09 0.01 0.00 0.00 0.00 0.00 0.00
0.01 0.01 0.02 0.02 0.02 0.02 0.03 0.04 0.07 0.14 0.34 0.47 0.36 0.40 0.61 0.36 0.12 0.15 0.15 0.16 0.12 0.09 0.09 0.04 0.03 0.05 0.07 0.10 0.12 0.06 0.01 0.01 0.00 0.00 0.00 0.02 0.08 0.21 0.16 0.08 0.02 0.00 0.00 0.00 0.00 0.00 0.00
0.01 0.01 0.01 0.01 0.01 0.01 0.02 0.04 0.06 0.12 0.23 0.39 0.33 0.36 0.84 0.70 0.25 0.11 0.16 0.17 0.15 0.12 0.11 0.06 0.01 0.01 0.11 0.16 0.22 0.15 0.04 0.02 0.01 0.04 0.03 0.03 0.07 0.15 0.12 0.16 0.07 0.10 0.01 0.00 0.00 0.02 0.00
0.00 0.00 0.01 0.01 0.01 0.00 0.01 0.03 0.06 0.08 0.21 0.20 0.25 0.21 0.47 0.57 0.09 0.06 0.12 0.16 0.21 0.20 0.18 0.19 0.13 0.17 0.25 0.25 0.22 0.16 0.12 0.07 0.05 0.03 0.08 0.18 0.22 0.20 0.14 0.20 0.12 0.06 0.01 0.00 0.04 0.08 0.00
0.00 0.00 0.00 0.01 0.00 0.00 0.01 0.03 0.04 0.03 0.09 0.11 0.29 0.18 0.17 0.27 0.08 0.04 0.07 0.08 0.15 0.15 0.23 0.45 0.47 0.47 0.40 0.42 0.35 0.23 0.14 0.14 0.12 0.11 0.18 0.25 0.33 0.27 0.27 0.29 0.18 0.02 0.02 0.04 0.10 0.03 0.00
0.00 0.00 0.00 0.00 0.01 0.00 0.01 0.02 0.03 0.04 0.07 0.04 0.16 0.43 0.49 0.17 0.02 0.00 0.01 0.03 0.08 0.17 0.20 0.34 0.47 0.58 1.03 1.01 0.64 0.33 0.24 0.32 0.30 0.31 0.17 0.17 0.16 0.21 0.23 0.33 0.10 0.01 0.02 0.00 0.00 0.00 0.00

GFSGBSN_prec_precacc24_231.txt.gz
Total_Precipitation_Accumulation
0.10 0.10 0.11 0.11 0.10 0.10 0.08 0.08 0.07 0.06 0.04 0.03 0.03 0.03 0.02 0.02 0.02 0.01 0.01 0.01 0.00 0.00 0.00 0.00 0.00 0.00 0.12 0.26 0.07 0.00 0.00 0.00 0.00 0.00 0.00 0.00 0.00 0.00 0.00 0.00 0.00 0.00 0.00 0.00 0.00 0.00 0.00
0.29 0.23 0.20 0.17 0.15 0.12 0.10 0.09 0.08 0.07 0.06 0.04 0.04 0.04 0.03 0.02 0.02 0.02 0.02 0.02 0.02 0.01 0.01 0.01 0.01 0.09 0.40 0.40 0.01 0.00 0.00 0.00 0.00 0.00 0.00 0.00 0.00 0.00 0.00 0.00 0.00 0.00 0.00 0.00 0.00 0.00 0.00
0.28 0.25 0.21 0.17 0.14 0.11 0.11 0.11 0.10 0.10 0.09 0.07 0.05 0.04 0.03 0.03 0.03 0.02 0.02 0.02 0.02 0.02 0.01 0.02 0.04 0.29 0.79 0.17 0.00 0.00 0.00 0.00 0.00 0.00 0.00 0.00 0.00 0.02 0.04 0.01 0.00 0.00 0.01 0.01 0.00 0.00 0.00
0.27 0.28 0.25 0.20 0.16 0.14 0.14 0.11 0.08 0.05 0.04 0.03 0.03 0.03 0.03 0.03 0.03 0.03 0.03 0.02 0.01 0.02 0.03 0.05 0.16 0.85 1.25 0.03 0.00 0.00 0.00 0.00 0.00 0.00 0.00 0.00 0.02 0.05 0.08 0.06 0.05 0.03 0.03 0.02 0.00 0.00 0.00
0.28 0.24 0.25 0.24 0.20 0.15 0.10 0.06 0.02 0.01 0.01 0.01 0.01 0.02 0.02 0.02 0.02 0.02 0.04 0.05 0.08 0.11 0.16 0.30 0.87 1.24 0.76 0.05 0.03 0.00 0.00 0.00 0.00 0.00 0.01 0.05 0.13 0.19 0.25 0.31 0.30 0.15 0.08 0.02 0.00 0.00 0.00
0.34 0.27 0.24 0.17 0.13 0.10 0.08 0.07 0.04 0.01 0.00 0.01 0.01 0.02 0.01 0.01 0.01 0.01 0.01 0.07 0.17 0.22 0.22 0.46 1.14 1.37 0.54 0.10 0.00 0.00 0.00 0.00 0.02 0.05 0.07 0.12 0.30 0.43 0.45 0.45 0.40 0.14 0.08 0.02 0.00 0.00 0.00
0.29 0.21 0.13 0.12 0.10 0.09 0.08 0.06 0.03 0.01 0.00 0.00 0.00 0.01 0.00 0.00 0.00 0.00 0.02 0.10 0.21 0.27 0.28 0.19 0.27 0.16 0.01 0.00 0.02 0.01 0.00 0.11 0.25 0.55 0.30 0.18 0.39 0.58 0.24 0.11 0.08 0.04 0.03 0.01 0.00 0.00 0.01
0.10 0.11 0.10 0.10 0.08 0.07 0.03 0.02 0.01 0.00 0.00 0.01 0.00 0.00 0.00 0.00 0.00 0.00 0.02 0.12 0.17 0.43 0.51 0.08 0.01 0.02 0.00 0.01 0.15 0.25 0.22 0.49 0.67 0.75 0.52 1.00 0.78 0.11 0.07 0.08 0.13 0.13 0.13 0.07 0.02 0.00 0.04
0.11 0.10 0.10 0.07 0.06 0.03 0.01 0.01 0.01 0.01 0.00 0.00 0.00 0.00 0.00 0.00 0.00 0.00 0.03 0.09 0.09 0.36 1.30 0.58 0.02 0.01 0.00 0.07 0.04 0.08 0.20 0.42 0.60 0.66 0.70 0.71 0.47 0.22 0.21 0.28 0.32 0.24 0.12 0.05 0.05 0.03 0.02
0.10 0.06 0.05 0.03 0.02 0.01 0.01 0.01 0.01 0.01 0.01 0.00 0.00 0.01 0.00 0.00 0.00 0.01 0.04 0.06 0.07 0.32 1.33 0.86 0.02 0.00 0.00 0.05 0.07 0.01 0.09 0.20 0.51 0.79 0.77 1.03 0.41 0.31 0.55 0.76 0.84 1.10 0.58 0.36 0.28 0.27 0.19
0.12 0.07 0.03 0.02 0.01 0.01 0.01 0.01 0.01 0.01 0.01 0.01 0.01 0.01 0.01 0.01 0.02 0.03 0.13 0.11 0.16 0.59 1.40 0.51 0.01 0.01 0.02 0.06 0.10 0.03 0.02 0.30 0.36 0.31 0.67 1.25 0.67 0.36 0.47 0.55 0.41 0.59 0.48 0.84 1.14 1.21 1.20
0.08 0.05 0.02 0.01 0.01 0.01 0.00 0.01 0.01 0.01 0.00 0.00 0.01 0.01 0.00 0.01 0.01 0.05 0.06 0.09 0.43 1.16 1.18 0.24 0.01 0.05 0.19 0.19 0.13 0.12 0.12 0.33 0.44 0.58 0.54 0.38 0.17 0.31 0.48 0.53 0.66 0.77 0.95 1.13 1.18 1.26 1.88
0.04 0.02 0.01 0.01 0.01 0.01 0.00 0.00 0.00 0.01 0.01 0.01 0.01 0.00 0.00 0.01 0.01 0.04 0.04 0.16 0.71 0.99 0.25 0.08 0.06 0.12 0.17 0.23 0.31 0.36 0.48 0.54 0.94 1.22 0.69 0.31 0.13 0.05 0.16 0.35 0.47 0.86 1.52 2.38 2.33 2.18 1.94
0.01 0.01 0.00 0.01 0.01 0.00 0.00 0.00 0.01 0.01 0.01 0.01 0.01 0.00 0.01 0.02 0.01 0.01 0.05 0.33 0.63 0.15 0.03 0.05 0.04 0.05 0.06 0.16 0.26 0.30 0.56 0.82 1.00 1.13 1.25 0.97 0.58 0.28 0.35 0.46 0.54 0.41 0.71 1.66 1.89 1.13 0.61
0.00 0.00 0.00 0.00 0.01 0.01 0.01 0.02 0.01 0.01 0.02 0.02 0.00 0.00 0.01 0.03 0.01 0.00 0.08 0.29 0.15 0.12 0.14 0.10 0.04 0.10 0.18 0.34 0.44 0.25 0.30 0.64 1.23 1.92 2.54 2.29 1.70 0.95 0.60 0.48 0.44 0.44 0.54 0.73 1.15 1.05 1.15
0.01 0.01 0.01 0.01 0.01 0.01 0.02 0.02 0.02 0.02 0.05 0.04 0.00 0.00 0.04 0.01 0.02 0.05 0.16 0.08 0.03 0.13 0.18 0.19 0.22 0.23 0.23 0.19 0.37 0.64 0.71 0.97 1.05 1.28 1.49 1.84 1.49 1.25 1.15 1.06 0.89 0.73 0.78 1.21 2.02 2.65 2.05
0.01 0.01 0.01 0.01 0.01 0.02 0.03 0.03 0.03 0.05 0.07 0.04 0.02 0.03 0.09 0.01 0.11 0.17 0.18 0.07 0.03 0.01 0.04 0.12 0.23 0.18 0.16 0.18 0.22 0.18 0.27 0.51 0.61 0.78 0.94 1.13 1.25 0.90 0.72 1.21 1.69 1.72 1.74 1.90 2.33 2.66 1.71
0.02 0.03 0.03 0.03 0.02 0.04 0.04 0.04 0.04 0.09 0.07 0.05 0.06 0.07 0.09 0.09 0.18 0.17 0.11 0.09 0.05 0.02 0.03 0.09 0.09 0.07 0.15 0.31 0.18 0.20 0.24 0.31 0.19 0.25 0.24 0.25 0.55 0.38 0.37 0.40 0.54 0.81 1.40 2.10 2.40 1.99 1.65
0.03 0.02 0.01 0.02 0.04 0.04 0.04 0.05 0.05 0.09 0.13 0.05 0.08 0.04 0.10 0.15 0.15 0.13 0.10 0.06 0.04 0.02 0.03 0.03 0.07 0.16 0.27 0.34 0.21 0.16 0.35 0.25 0.22 0.27 0.41 0.41 0.46 0.24 0.17 0.21 0.16 0.34 0.46 0.60 0.94 1.14 1.03
0.00 0.01 0.00 0.00 0.00 0.00 0.01 0.04 0.06 0.08 0.20 0.10 0.08 0.07 0.09 0.15 0.12 0.15 0.16 0.10 0.06 0.04 0.06 0.11 0.10 0.11 0.09 0.07 0.16 0.13 0.12 0.19 0.07 0.11 0.18 0.26 0.44 0.41 0.32 0.37 0.26 0.18 0.24 0.24 0.32 0.51 0.54
0.01 0.01 0.00 0.00 0.00 0.00 0.00 0.01 0.02 0.08 0.23 0.33 0.31 0.13 0.09 0.12 0.13 0.16 0.20 0.17 0.12 0.10 0.12 0.16 0.19 0.22 0.28 0.18 0.07 0.06 0.12 0.11 0.07 0.14 0.10 0.11 0.16 0.14 0.08 0.06 0.03 0.02 0.03 0.06 0.12 0.12 0.18
0.00 0.00 0.00 0.00 0.01 0.01 0.02 0.04 0.05 0.15 0.17 0.27 0.40 0.18 0.14 0.08 0.08 0.13 0.19 0.14 0.10 0.08 0.10 0.06 0.10 0.14 0.23 0.29 0.23 0.23 0.17 0.10 0.05 0.06 0.04 0.08 0.05 0.01 0.00 0.00 0.01 0.02 0.01 0.00 0.02 0.05 0.06
0.00 0.00 0.00 0.00 0.01 0.01 0.02 0.03 0.05 0.16 0.22 0.11 0.13 0.18 0.28 0.13 0.07 0.16 0.17 0.15 0.12 0.14 0.07 0.06 0.09 0.07 0.08 0.05 0.04 0.04 0.01 0.01 0.00 0.00 0.01 0.01 0.02 0.03 0.00 0.00 0.00 0.05 0.01 0.00 0.00 0.01 0.02
0.01 0.01 0.01 0.00 0.00 0.01 0.01 0.01 0.02 0.08 0.27 0.17 0.08 0.15 0.34 0.20 0.14 0.15 0.14 0.15 0.10 0.10 0.11 0.03 0.06 0.10 0.06 0.01 0.01 0.00 0.00 0.00 0.00 0.01 0.00 0.01 0.02 0.06 0.03 0.01 0.02 0.19 0.02 0.00 0.00 0.01 0.01
0.00 0.01 0.01 0.01 0.00 0.00 0.00 0.00 0.02 0.06 0.18 0.27 0.28 0.29 0.47 0.27 0.11 0.15 0.13 0.13 0.11 0.09 0.09 0.04 0.03 0.07 0.06 0.04 0.06 0.02 0.00 0.00 0.00 0.00 0.00 0.00 0.04 0.09 0.06 0.03 0.02 0.10 0.05 0.05 0.04 0.02 0.02
0.00 0.00 0.01 0.01 0.01 0.00 0.00 0.01 0.03 0.04 0.08 0.17 0.24 0.32 0.69 0.61 0.23 0.11 0.16 0.16 0.14 0.12 0.11 0.06 0.01 0.01 0.06 0.10 0.10 0.05 0.03 0.03 0.02 0.04 0.03 0.03 0.07 0.13 0.06 0.08 0.10 0.25 0.05 0.01 0.02 0.10 0.04
0.00 0.00 0.01 0.01 0.01 0.00 0.00 0.01 0.03 0.01 0.07 0.05 0.08 0.19 0.25 0.27 0.06 0.06 0.11 0.15 0.20 0.17 0.16 0.17 0.11 0.13 0.19 0.16 0.14 0.13 0.16 0.13 0.13 0.06 0.08 0.18 0.22 0.16 0.11 0.12 0.09 0.06 0.03 0.01 0.16 0.26 0.04
0.00 0.00 0.00 0.01 0.00 0.00 0.01 0.02 0.03 0.02 0.03 0.01 0.05 0.07 0.11 0.14 0.04 0.04 0.07 0.08 0.13 0.15 0.19 0.23 0.12 0.28 0.27 0.30 0.24 0.21 0.19 0.26 0.25 0.16 0.13 0.17 0.31 0.21 0.25 0.30 0.25 0.03 0.03 0.12 0.28 0.08 0.00
0.00 0.00 0.00 0.00 0.00 0.00 0.01 0.01 0.03 0.03 0.01 0.01 0.06 0.23 0.24 0.12 0.01 0.00 0.01 0.03 0.06 0.11 0.13 0.19 0.29 0.36 0.79 0.79 0.58 0.32 0.26 0.37 0.31 0.27 0.16 0.11 0.21 0.27 0.31 0.40 0.16 0.04 0.05 0.01 0.00 0.00 0.00

GFSGBSN_prec_precacc24_234.txt.gz
Total_Precipitation_Accumulation
0.09 0.10 0.11 0.11 0.10 0.09 0.08 0.08 0.07 0.06 0.05 0.04 0.04 0.03 0.02 0.02 0.02 0.01 0.01 0.01 0.00 0.00 0.00 0.00 0.00 0.00 0.10 0.22 0.06 0.00 0.00 0.00 0.00 0.00 0.00 0.00 0.00 0.00 0.00 0.00 0.00 0.00 0.00 0.00 0.00 0.00 0.00
0.28 0.22 0.19 0.17 0.15 0.12 0.10 0.08 0.08 0.07 0.06 0.05 0.04 0.04 0.03 0.02 0.02 0.02 0.02 0.02 0.02 0.01 0.01 0.01 0.01 0.08 0.34 0.31 0.01 0.00 0.00 0.00 0.00 0.00 0.00 0.00 0.00 0.00 0.01 0.00 0.00 0.00 0.00 0.00 0.00 0.00 0.00
0.28 0.25 0.20 0.16 0.13 0.11 0.10 0.09 0.09 0.10 0.10 0.07 0.05 0.04 0.03 0.03 0.03 0.02 0.02 0.02 0.02 0.02 0.01 0.02 0.04 0.28 0.72 0.14 0.00 0.00 0.00 0.00 0.00 0.00 0.01 0.01 0.01 0.03 0.06 0.01 0.00 0.00 0.01 0.01 0.00 0.00 0.00
0.26 0.27 0.25 0.19 0.16 0.13 0.11 0.10 0.07 0.05 0.04 0.03 0.02 0.02 0.02 0.02 0.02 0.02 0.02 0.02 0.01 0.02 0.03 0.05 0.15 0.80 1.17 0.02 0.00 0.00 0.00 0.00 0.00 0.00 0.00 0.01 0.03 0.08 0.11 0.07 0.06 0.06 0.10 0.08 0.01 0.00 0.00
0.27 0.23 0.24 0.23 0.20 0.16 0.11 0.06 0.04 0.02 0.02 0.01 0.01 0.01 0.00 0.01 0.01 0.01 0.01 0.03 0.04 0.07 0.12 0.24 0.78 1.15 0.72 0.04 0.02 0.00 0.00 0.00 0.00 0.00 0.01 0.06 0.15 0.20 0.27 0.34 0.35 0.17 0.14 0.08 0.02 0.00 0.00
0.33 0.27 0.24 0.18 0.14 0.11 0.09 0.08 0.05 0.03 0.02 0.01 0.01 0.01 0.01 0.00 0.00 0.00 0.00 0.02 0.06 0.10 0.11 0.24 0.83 1.13 0.47 0.08 0.00 0.00 0.00 0.00 0.02 0.05 0.07 0.12 0.29 0.43 0.44 0.48 0.47 0.15 0.09 0.03 0.01 0.00 0.01
0.29 0.21 0.14 0.13 0.12 0.10 0.09 0.08 0.05 0.02 0.01 0.00 0.00 0.00 0.00 0.00 0.00 0.00 0.00 0.05 0.11 0.16 0.20 0.13 0.22 0.14 0.01 0.00 0.02 0.01 0.00 0.11 0.25 0.55 0.30 0.17 0.39 0.58 0.23 0.13 0.12 0.10 0.09 0.06 0.02 0.00 0.03
0.11 0.12 0.10 0.10 0.09 0.07 0.04 0.03 0.03 0.01 0.00 0.00 0.00 0.00 0.00 0.00 0.00 0.00 0.01 0.09 0.15 0.36 0.44 0.08 0.01 0.02 0.00 0.01 0.15 0.25 0.22 0.49 0.67 0.74 0.52 0.99 0.78 0.11 0.07 0.08 0.16 0.18 0.19 0.13 0.05 0.01 0.07
0.12 0.12 0.12 0.12 0.08 0.05 0.02 0.01 0.00 0.00 0.00 0.00 0.00 0.00 0.00 0.00 0.00 0.00 0.03 0.08 0.07 0.25 0.95 0.44 0.02 0.01 0.00 0.06 0.04 0.08 0.20 0.42 0.59 0.65 0.69 0.70 0.47 0.22 0.21 0.27 0.33 0.29 0.20 0.13 0.12 0.07 0.06
0.13 0.09 0.08 0.07 0.07 0.03 0.02 0.01 0.01 0.01 0.01 0.00 0.00 0.00 0.00 0.00 0.00 0.01 0.04 0.05 0.03 0.15 0.84 0.55 0.00 0.00 0.00 0.04 0.06 0.01 0.09 0.20 0.50 0.78 0.76 1.02 0.41 0.31 0.55 0.76 0.83 1.10 0.58 0.40 0.36 0.36 0.31
0.15 0.10 0.06 0.03 0.02 0.02 0.01 0.00 0.00 0.00 0.00 0.00 0.00 0.00 0.00 0.00 0.01 0.03 0.11 0.10 0.14 0.42 0.87 0.26 0.00 0.00 0.02 0.05 0.10 0.03 0.02 0.29 0.36 0.31 0.65 1.23 0.67 0.36 0.47 0.55 0.41 0.60 0.48 0.85 1.19 1.36 1.47
0.12 0.08 0.05 0.03 0.02 0.01 0.00 0.00 0.00 0.00 0.00 0.00 0.00 0.00 0.00 0.01 0.01 0.02 0.03 0.05 0.31 0.80 0.74 0.09 0.01 0.05 0.17 0.18 0.12 0.12 0.12 0.33 0.44 0.57 0.53 0.37 0.17 0.31 0.48 0.53 0.66 0.76 0.93 1.08 1.15 1.28 1.95
0.10 0.08 0.06 0.04 0.01 0.00 0.00 0.00 0.00 0.00 0.00 0.00 0.01 0.00 0.00 0.00 0.00 0.01 0.00 0.06 0.41 0.63 0.11 0.06 0.06 0.12 0.16 0.22 0.30 0.35 0.47 0.52 0.92 1.19 0.64 0.29 0.13 0.06 0.16 0.34 0.46 0.84 1.53 2.41 2.28 2.11 1.92
0.12 0.05 0.03 0.02 0.01 0.00 0.00 0.00 0.01 0.01 0.01 0.00 0.00 0.00 0.01 0.02 0.00 0.01 0.00 0.13 0.29 0.04 0.02 0.05 0.04 0.04 0.05 0.15 0.24 0.30 0.54 0.75 0.93 1.11 1.22 0.96 0.57 0.28 0.35 0.46 0.54 0.42 0.78 1.72 1.83 1.13 0.66
0.07 0.04 0.02 0.01 0.01 0.00 0.00 0.01 0.01 0.01 0.02 0.02 0.00 0.00 0.01 0.03 0.01 0.00 0.04 0.11 0.04 0.07 0.10 0.07 0.03 0.05 0.09 0.27 0.38 0.20 0.24 0.58 1.10 1.65 2.34 2.12 1.58 0.93 0.60 0.47 0.54 0.56 0.62 0.80 1.19 0.98 1.15
0.03 0.01 0.00 0.00 0.00 0.00 0.02 0.02 0.01 0.01 0.03 0.03 0.00 0.00 0.04 0.01 0.02 0.05 0.11 0.04 0.01 0.05 0.08 0.11 0.15 0.14 0.13 0.11 0.25 0.47 0.51 0.66 0.72 0.96 1.31 1.69 1.36 0.99 1.00 1.02 0.92 0.87 0.87 1.25 1.96 2.35 1.76
0.01 0.01 0.01 0.00 0.01 0.01 0.02 0.02 0.03 0.05 0.04 0.01 0.02 0.03 0.09 0.01 0.10 0.17 0.14 0.06 0.03 0.00 0.01 0.06 0.14 0.10 0.07 0.06 0.09 0.09 0.22 0.43 0.48 0.56 0.70 1.06 1.19 0.72 0.49 0.94 1.50 1.52 1.53 1.76 2.41 2.56 1.54
0.02 0.02 0.02 0.01 0.01 0.02 0.03 0.04 0.04 0.07 0.05 0.02 0.04 0.06 0.09 0.07 0.17 0.17 0.10 0.08 0.05 0.02 0.02 0.04 0.06 0.04 0.07 0.19 0.10 0.12 0.22 0.30 0.19 0.24 0.23 0.26 0.57 0.29 0.31 0.35 0.50 0.73 1.32 2.03 2.34 2.10 1.59
0.00 0.00 0.00 0.00 0.00 0.00 0.00 0.01 0.02 0.07 0.09 0.05 0.05 0.03 0.10 0.13 0.12 0.12 0.10 0.06 0.04 0.02 0.03 0.03 0.06 0.12 0.20 0.25 0.20 0.13 0.31 0.23 0.20 0.25 0.41 0.42 0.47 0.19 0.13 0.19 0.16 0.33 0.46 0.63 0.98 1.19 1.12
0.00 0.00 0.00 0.00 0.00 0.00 0.00 0.00 0.00 0.03 0.11 0.07 0.06 0.05 0.09 0.14 0.11 0.11 0.12 0.08 0.06 0.03 0.06 0.09 0.09 0.10 0.08 0.06 0.15 0.12 0.12 0.18 0.06 0.08 0.12 0.17 0.31 0.35 0.31 0.36 0.26 0.18 0.23 0.24 0.34 0.57 0.62
0.00 0.00 0.00 0.00 0.00 0.00 0.00 0.01 0.02 0.07 0.10 0.17 0.23 0.12 0.08 0.12 0.13 0.16 0.19 0.13 0.09 0.09 0.11 0.16 0.19 0.22 0.28 0.18 0.07 0.06 0.12 0.11 0.07 0.14 0.09 0.08 0.11 0.11 0.06 0.03 0.02 0.02 0.03 0.06 0.15 0.19 0.28
0.00 0.00 0.00 0.00 0.00 0.01 0.02 0.03 0.04 0.12 0.09 0.11 0.13 0.12 0.12 0.08 0.08 0.13 0.18 0.13 0.10 0.07 0.09 0.06 0.10 0.14 0.23 0.29 0.23 0.23 0.17 0.10 0.05 0.06 0.04 0.07 0.05 0.01 0.00 0.00 0.01 0.01 0.00 0.01 0.05 0.11 0.16
0.00 0.00 0.00 0.00 0.00 0.00 0.01 0.01 0.02 0.09 0.14 0.09 0.07 0.07 0.17 0.08 0.06 0.15 0.17 0.15 0.12 0.14 0.07 0.06 0.09 0.07 0.08 0.05 0.04 0.04 0.01 0.01 0.00 0.00 0.01 0.01 0.02 0.02 0.00 0.00 0.00 0.07 0.10 0.06 0.07 0.06 0.13
0.01 0.01 0.01 0.00 0.00 0.01 0.01 0.00 0.01 0.05 0.19 0.14 0.07 0.13 0.24 0.11 0.11 0.14 0.14 0.15 0.10 0.09 0.11 0.03 0.06 0.10 0.06 0.01 0.00 0.00 0.00 0.00 0.00 0.01 0.00 0.01 0.02 0.04 0.02 0.01 0.02 0.34 0.08 0.07 0.08 0.06 0.13
0.00 0.01 0.01 0.00 0.00 0.00 0.00 0.00 0.01 0.04 0.12 0.18 0.23 0.27 0.41 0.22 0.09 0.14 0.12 0.11 0.09 0.08 0.08 0.04 0.03 0.07 0.06 0.04 0.05 0.02 0.00 0.00 0.00 0.00 0.00 0.00 0.04 0.09 0.05 0.02 0.03 0.16 0.12 0.10 0.11 0.09 0.09
0.00 0.00 0.01 0.01 0.00 0.00 0.00 0.00 0.02 0.02 0.04 0.11 0.16 0.27 0.58 0.54 0.22 0.10 0.13 0.15 0.14 0.12 0.11 0.06 0.01 0.01 0.06 0.09 0.09 0.05 0.04 0.04 0.03 0.04 0.03 0.03 0.06 0.12 0.05 0.07 0.12 0.26 0.05 0.02 0.03 0.16 0.09
0.00 0.00 0.00 0.00 0.00 0.00 0.00 0.01 0.02 0.01 0.02 0.03 0.07 0.17 0.17 0.14 0.04 0.06 0.10 0.15 0.19 0.17 0.15 0.17 0.11 0.13 0.17 0.15 0.12 0.11 0.13 0.14 0.17 0.08 0.08 0.17 0.19 0.13 0.10 0.11 0.08 0.06 0.03 0.01 0.25 0.31 0.04
0.00 0.00 0.00 0.00 0.00 0.00 0.01 0.01 0.03 0.01 0.00 0.00 0.03 0.06 0.10 0.09 0.03 0.03 0.07 0.08 0.13 0.13 0.18 0.23 0.10 0.22 0.21 0.26 0.21 0.17 0.18 0.26 0.25 0.16 0.13 0.19 0.32 0.21 0.25 0.29 0.25 0.03 0.03 0.12 0.30 0.08 0.00
0.00 0.00 0.00 0.00 0.00 0.00 0.01 0.01 0.02 0.01 0.01 0.00 0.02 0.04 0.10 0.10 0.01 0.00 0.01 0.03 0.06 0.11 0.13 0.12 0.16 0.25 0.55 0.62 0.54 0.29 0.22 0.36 0.31 0.27 0.16 0.11 0.21 0.28 0.32 0.41 0.16 0.04 0.05 0.01 0.00 0.00 0.00

GFSGBSN_prec_precacc24_237.txt.gz
Total_Precipitation_Accumulation
0.08 0.10 0.10 0.10 0.10 0.09 0.08 0.08 0.07 0.06 0.05 0.04 0.04 0.03 0.03 0.03 0.02 0.01 0.01 0.01 0.00 0.00 0.00 0.00 0.00 0.00 0.07 0.17 0.04 0.00 0.00 0.00 0.00 0.00 0.00 0.00 0.00 0.00 0.00 0.00 0.00 0.00 0.00 0.00 0.00 0.00 0.00
0.25 0.20 0.17 0.16 0.14 0.11 0.10 0.08 0.07 0.06 0.05 0.04 0.04 0.04 0.03 0.02 0.02 0.02 0.02 0.02 0.02 0.01 0.01 0.01 0.01 0.07 0.26 0.22 0.00 0.00 0.00 0.00 0.00 0.00 0.00 0.00 0.00 0.00 0.01 0.00 0.00 0.00 0.00 0.00 0.00 0.00 0.00
0.25 0.24 0.19 0.16 0.13 0.10 0.09 0.08 0.08 0.07 0.06 0.04 0.04 0.03 0.02 0.03 0.03 0.02 0.02 0.02 0.02 0.02 0.01 0.02 0.03 0.26 0.63 0.11 0.00 0.00 0.00 0.00 0.00 0.00 0.01 0.01 0.01 0.04 0.08 0.04 0.01 0.01 0.02 0.01 0.00 0.00 0.00
0.18 0.21 0.21 0.18 0.16 0.13 0.11 0.09 0.07 0.05 0.03 0.02 0.01 0.01 0.01 0.01 0.02 0.02 0.01 0.01 0.01 0.01 0.02 0.03 0.13 0.72 1.06 0.02 0.00 0.00 0.00 0.00 0.00 0.00 0.00 0.01 0.03 0.09 0.14 0.11 0.08 0.09 0.16 0.11 0.01 0.00 0.00
0.25 0.20 0.20 0.21 0.19 0.15 0.11 0.07 0.04 0.03 0.02 0.01 0.00 0.00 0.00 0.00 0.00 0.00 0.00 0.00 0.01 0.03 0.05 0.12 0.52 0.92 0.65 0.02 0.01 0.00 0.00 0.00 0.00 0.00 0.01 0.06 0.15 0.20 0.26 0.35 0.35 0.16 0.16 0.09 0.02 0.00 0.00
0.33 0.26 0.23 0.18 0.14 0.11 0.10 0.09 0.06 0.04 0.02 0.01 0.00 0.00 0.00 0.00 0.00 0.00 0.00 0.00 0.01 0.05 0.06 0.16 0.59 0.86 0.39 0.06 0.00 0.00 0.00 0.00 0.02 0.05 0.06 0.11 0.27 0.41 0.43 0.50 0.48 0.16 0.10 0.04 0.02 0.00 0.02
0.29 0.21 0.14 0.13 0.12 0.10 0.10 0.07 0.05 0.02 0.01 0.00 0.00 0.00 0.00 0.00 0.00 0.00 0.00 0.01 0.04 0.11 0.14 0.09 0.16 0.11 0.01 0.00 0.02 0.01 0.00 0.10 0.23 0.53 0.30 0.17 0.38 0.56 0.23 0.13 0.12 0.11 0.11 0.09 0.03 0.00 0.04
0.11 0.12 0.10 0.11 0.10 0.08 0.04 0.02 0.02 0.01 0.00 0.00 0.00 0.00 0.00 0.00 0.00 0.00 0.00 0.04 0.08 0.25 0.31 0.05 0.01 0.01 0.00 0.01 0.14 0.25 0.21 0.47 0.62 0.72 0.51 0.97 0.78 0.11 0.07 0.08 0.16 0.18 0.19 0.13 0.05 0.01 0.08
0.12 0.12 0.12 0.12 0.08 0.05 0.02 0.01 0.00 0.00 0.00 0.00 0.00 0.00 0.00 0.00 0.00 0.00 0.02 0.04 0.02 0.14 0.64 0.27 0.01 0.00 0.00 0.06 0.03 0.08 0.19 0.39 0.56 0.63 0.67 0.68 0.47 0.22 0.21 0.27 0.33 0.29 0.20 0.13 0.12 0.07 0.06
0.13 0.10 0.08 0.07 0.07 0.03 0.01 0.00 0.00 0.00 0.00 0.00 0.00 0.00 0.00 0.00 0.00 0.01 0.03 0.04 0.02 0.09 0.54 0.31 0.00 0.00 0.00 0.03 0.06 0.01 0.08 0.18 0.47 0.75 0.72 0.95 0.40 0.30 0.54 0.76 0.83 1.10 0.58 0.40 0.36 0.36 0.31
0.16 0.11 0.06 0.03 0.03 0.02 0.01 0.00 0.00 0.00 0.00 0.00 0.00 0.00 0.00 0.00 0.01 0.01 0.05 0.05 0.10 0.33 0.55 0.11 0.00 0.00 0.01 0.04 0.10 0.03 0.02 0.28 0.35 0.29 0.57 1.12 0.66 0.34 0.46 0.55 0.40 0.60 0.48 0.85 1.19 1.36 1.49
0.16 0.10 0.06 0.04 0.03 0.02 0.01 0.01 0.01 0.00 0.00 0.00 0.00 0.00 0.00 0.00 0.00 0.01 0.00 0.01 0.19 0.56 0.47 0.04 0.01 0.04 0.16 0.15 0.11 0.11 0.10 0.30 0.41 0.52 0.47 0.33 0.16 0.30 0.48 0.52 0.65 0.76 0.93 1.06 1.12 1.23 1.89
0.16 0.12 0.07 0.06 0.04 0.05 0.02 0.02 0.01 0.00 0.00 0.00 0.00 0.00 0.00 0.00 0.00 0.01 0.00 0.02 0.20 0.36 0.05 0.06 0.06 0.11 0.15 0.21 0.27 0.32 0.46 0.50 0.84 1.09 0.59 0.25 0.12 0.05 0.16 0.34 0.42 0.79 1.46 2.30 2.14 1.93 1.71
0.21 0.12 0.08 0.05 0.06 0.04 0.05 0.01 0.01 0.00 0.00 0.00 0.00 0.00 0.01 0.02 0.00 0.01 0.00 0.06 0.14 0.01 0.02 0.04 0.03 0.03 0.04 0.12 0.20 0.26 0.49 0.71 0.88 1.08 1.19 0.91 0.54 0.28 0.35 0.45 0.51 0.40 0.83 1.75 1.79 1.03 0.63
0.21 0.19 0.10 0.04 0.06 0.03 0.01 0.00 0.01 0.00 0.00 0.01 0.00 0.00 0.01 0.03 0.01 0.00 0.04 0.08 0.01 0.04 0.06 0.05 0.03 0.03 0.06 0.24 0.33 0.16 0.20 0.54 1.04 1.53 2.15 1.91 1.39 0.85 0.59 0.47 0.55 0.68 0.71 0.82 1.29 0.93 1.02
0.19 0.19 0.16 0.06 0.02 0.01 0.01 0.00 0.00 0.00 0.01 0.01 0.00 0.00 0.04 0.01 0.02 0.05 0.10 0.04 0.01 0.02 0.04 0.08 0.12 0.08 0.06 0.08 0.21 0.34 0.32 0.43 0.47 0.72 1.18 1.58 1.37 0.89 0.90 0.97 0.90 0.96 0.93 1.25 1.73 1.99 1.45
0.17 0.14 0.14 0.07 0.01 0.01 0.00 0.01 0.02 0.03 0.02 0.00 0.01 0.03 0.09 0.01 0.09 0.16 0.14 0.06 0.03 0.00 0.01 0.05 0.07 0.07 0.03 0.02 0.04 0.06 0.16 0.31 0.33 0.36 0.46 0.79 0.96 0.54 0.37 0.76 1.35 1.38 1.38 1.53 2.18 2.29 1.35
0.14 0.14 0.08 0.04 0.01 0.00 0.00 0.00 0.01 0.03 0.02 0.02 0.04 0.05 0.08 0.05 0.16 0.16 0.10 0.08 0.05 0.01 0.01 0.03 0.05 0.03 0.05 0.11 0.06 0.06 0.16 0.27 0.15 0.20 0.19 0.23 0.54 0.21 0.24 0.25 0.35 0.55 1.12 1.85 2.16 1.98 1.55
0.08 0.07 0.04 0.02 0.01 0.00 0.00 0.00 0.00 0.01 0.03 0.05 0.05 0.03 0.09 0.12 0.11 0.11 0.10 0.06 0.04 0.02 0.03 0.02 0.05 0.09 0.12 0.14 0.18 0.12 0.27 0.21 0.17 0.15 0.32 0.36 0.44 0.18 0.12 0.18 0.11 0.25 0.41 0.58 0.89 1.15 1.26
0.03 0.02 0.01 0.00 0.00 0.00 0.00 0.00 0.00 0.01 0.02 0.03 0.05 0.05 0.09 0.13 0.10 0.11 0.11 0.07 0.05 0.03 0.05 0.07 0.08 0.09 0.08 0.05 0.13 0.11 0.12 0.18 0.06 0.07 0.10 0.16 0.28 0.31 0.31 0.34 0.26 0.29 0.22 0.21 0.33 0.63 0.74
0.02 0.01 0.00 0.00 0.00 0.00 0.00 0.01 0.02 0.06 0.04 0.05 0.07 0.06 0.08 0.12 0.12 0.16 0.18 0.13 0.07 0.06 0.06 0.13 0.18 0.21 0.27 0.18 0.07 0.05 0.11 0.10 0.07 0.14 0.08 0.07 0.10 0.08 0.05 0.03 0.05 0.10 0.05 0.08 0.24 0.33 0.50
0.01 0.00 0.00 0.00 0.00 0.00 0.00 0.01 0.01 0.06 0.04 0.09 0.06 0.07 0.09 0.07 0.07 0.10 0.16 0.12 0.10 0.07 0.09 0.06 0.10 0.14 0.23 0.29 0.23 0.23 0.17 0.10 0.05 0.06 0.03 0.06 0.05 0.01 0.00 0.00 0.01 0.01 0.00 0.03 0.13 0.24 0.38
0.00 0.00 0.00 0.00 0.00 0.00 0.00 0.00 0.01 0.04 0.07 0.08 0.07 0.07 0.15 0.06 0.06 0.12 0.15 0.13 0.10 0.12 0.06 0.06 0.09 0.07 0.08 0.05 0.04 0.04 0.01 0.01 0.00 0.00 0.01 0.01 0.02 0.02 0.00 0.00 0.00 0.10 0.19 0.16 0.18 0.24 0.28
0.01 0.00 0.00 0.00 0.00 0.01 0.01 0.00 0.00 0.02 0.11 0.10 0.07 0.12 0.18 0.09 0.11 0.13 0.13 0.14 0.09 0.09 0.11 0.03 0.05 0.10 0.06 0.01 0.00 0.00 0.00 0.00 0.00 0.01 0.00 0.01 0.02 0.03 0.01 0.01 0.02 0.36 0.11 0.15 0.20 0.19 0.27
0.00 0.00 0.00 0.00 0.00 0.00 0.00 0.00 0.01 0.02 0.07 0.11 0.17 0.22 0.31 0.17 0.09 0.14 0.12 0.10 0.09 0.07 0.06 0.03 0.03 0.07 0.06 0.04 0.05 0.02 0.00 0.00 0.00 0.00 0.00 0.00 0.03 0.07 0.04 0.02 0.03 0.16 0.12 0.17 0.19 0.17 0.15
0.00 0.00 0.00 0.00 0.00 0.00 0.00 0.00 0.01 0.01 0.01 0.07 0.12 0.15 0.20 0.24 0.15 0.10 0.13 0.14 0.13 0.12 0.11 0.06 0.01 0.01 0.06 0.09 0.09 0.04 0.04 0.04 0.03 0.04 0.03 0.02 0.05 0.09 0.05 0.06 0.12 0.26 0.05 0.03 0.09 0.17 0.10
0.00 0.00 0.00 0.00 0.00 0.00 0.00 0.01 0.01 0.00 0.00 0.02 0.06 0.15 0.10 0.09 0.04 0.05 0.10 0.15 0.19 0.17 0.15 0.17 0.11 0.12 0.15 0.14 0.12 0.11 0.13 0.13 0.15 0.07 0.07 0.13 0.15 0.10 0.08 0.10 0.08 0.06 0.03 0.01 0.26 0.32 0.04
0.00 0.00 0.00 0.00 0.00 0.00 0.00 0.00 0.00 0.01 0.00 0.00 0.03 0.06 0.07 0.07 0.02 0.02 0.06 0.07 0.13 0.13 0.17 0.23 0.10 0.21 0.19 0.22 0.20 0.17 0.18 0.26 0.24 0.15 0.11 0.19 0.31 0.21 0.24 0.28 0.24 0.03 0.03 0.13 0.30 0.08 0.00
0.00 0.00 0.00 0.00 0.00 0.00 0.00 0.00 0.00 0.00 0.01 0.00 0.02 0.03 0.05 0.08 0.01 0.00 0.01 0.03 0.06 0.11 0.13 0.11 0.15 0.16 0.31 0.33 0.38 0.25 0.20 0.35 0.31 0.27 0.16 0.11 0.21 0.28 0.32 0.41 0.16 0.04 0.05 0.01 0.00 0.00 0.00

GFSGBSN_prec_precacc24_240.txt.gz
Total_Precipitation_Accumulation
0.05 0.06 0.07 0.08 0.08 0.08 0.08 0.07 0.07 0.06 0.05 0.04 0.04 0.03 0.03 0.03 0.02 0.01 0.01 0.01 0.00 0.00 0.00 0.00 0.00 0.00 0.05 0.12 0.03 0.00 0.00 0.00 0.00 0.00 0.00 0.00 0.00 0.00 0.00 0.00 0.00 0.00 0.00 0.00 0.00 0.00 0.00
0.11 0.09 0.11 0.14 0.13 0.11 0.09 0.07 0.06 0.06 0.05 0.03 0.03 0.02 0.02 0.02 0.02 0.01 0.01 0.02 0.02 0.01 0.01 0.01 0.01 0.06 0.19 0.16 0.00 0.00 0.00 0.00 0.00 0.00 0.00 0.00 0.01 0.01 0.02 0.00 0.00 0.00 0.00 0.00 0.00 0.00 0.00
0.18 0.16 0.15 0.13 0.12 0.10 0.09 0.08 0.07 0.07 0.05 0.03 0.02 0.01 0.00 0.01 0.01 0.01 0.01 0.02 0.02 0.02 0.01 0.02 0.03 0.25 0.58 0.08 0.00 0.00 0.00 0.00 0.00 0.00 0.01 0.01 0.02 0.05 0.09 0.05 0.01 0.02 0.02 0.00 0.00 0.00 0.00
0.15 0.16 0.15 0.14 0.11 0.10 0.09 0.08 0.06 0.05 0.03 0.02 0.01 0.01 0.00 0.01 0.01 0.01 0.01 0.01 0.00 0.00 0.01 0.02 0.10 0.63 0.96 0.02 0.00 0.00 0.00 0.00 0.00 0.00 0.00 0.01 0.03 0.09 0.14 0.11 0.07 0.09 0.15 0.11 0.01 0.00 0.00
0.26 0.19 0.19 0.20 0.18 0.14 0.09 0.06 0.04 0.03 0.02 0.01 0.00 0.00 0.00 0.00 0.00 0.00 0.00 0.00 0.00 0.01 0.02 0.05 0.32 0.70 0.58 0.01 0.00 0.00 0.00 0.00 0.00 0.00 0.01 0.05 0.14 0.19 0.25 0.34 0.33 0.16 0.16 0.09 0.02 0.00 0.00
0.35 0.27 0.23 0.17 0.14 0.11 0.09 0.08 0.06 0.03 0.02 0.01 0.00 0.00 0.00 0.00 0.00 0.00 0.00 0.00 0.00 0.01 0.02 0.10 0.38 0.61 0.29 0.03 0.00 0.00 0.00 0.00 0.02 0.03 0.04 0.10 0.25 0.38 0.40 0.47 0.47 0.16 0.10 0.04 0.02 0.00 0.02
0.34 0.23 0.14 0.13 0.12 0.10 0.10 0.07 0.04 0.02 0.01 0.00 0.00 0.00 0.00 0.00 0.00 0.00 0.00 0.01 0.03 0.07 0.09 0.06 0.11 0.08 0.01 0.00 0.02 0.01 0.00 0.07 0.14 0.44 0.27 0.16 0.37 0.55 0.22 0.12 0.12 0.11 0.11 0.09 0.03 0.00 0.04
0.16 0.13 0.11 0.11 0.10 0.08 0.04 0.02 0.02 0.01 0.00 0.00 0.00 0.00 0.00 0.00 0.00 0.00 0.00 0.02 0.04 0.14 0.16 0.02 0.01 0.01 0.00 0.01 0.13 0.23 0.18 0.40 0.49 0.60 0.46 0.88 0.76 0.11 0.07 0.08 0.16 0.18 0.18 0.12 0.05 0.01 0.08
0.16 0.14 0.12 0.12 0.08 0.05 0.01 0.01 0.00 0.00 0.00 0.00 0.00 0.00 0.00 0.00 0.00 0.00 0.01 0.02 0.01 0.10 0.36 0.13 0.00 0.00 0.00 0.04 0.03 0.07 0.16 0.33 0.50 0.57 0.63 0.65 0.47 0.22 0.21 0.27 0.33 0.29 0.20 0.13 0.11 0.07 0.06
0.15 0.11 0.08 0.08 0.07 0.03 0.02 0.00 0.00 0.00 0.00 0.00 0.00 0.00 0.00 0.00 0.00 0.01 0.02 0.04 0.01 0.06 0.33 0.15 0.00 0.00 0.00 0.01 0.04 0.00 0.08 0.16 0.44 0.71 0.67 0.84 0.38 0.29 0.53 0.76 0.82 1.10 0.58 0.40 0.36 0.36 0.31
0.18 0.11 0.07 0.03 0.03 0.02 0.01 0.00 0.00 0.00 0.00 0.00 0.00 0.00 0.00 0.00 0.00 0.01 0.02 0.02 0.04 0.17 0.33 0.05 0.00 0.00 0.01 0.03 0.09 0.03 0.01 0.25 0.33 0.27 0.51 1.04 0.65 0.32 0.44 0.54 0.39 0.59 0.48 0.85 1.19 1.36 1.50
0.17 0.11 0.07 0.04 0.03 0.02 0.01 0.01 0.01 0.00 0.00 0.00 0.00 0.00 0.00 0.00 0.00 0.00 0.00 0.00 0.07 0.30 0.26 0.03 0.01 0.04 0.14 0.12 0.10 0.09 0.05 0.25 0.37 0.47 0.40 0.31 0.14 0.26 0.46 0.50 0.62 0.74 0.91 1.04 1.10 1.21 1.83
0.19 0.12 0.08 0.06 0.04 0.05 0.04 0.03 0.01 0.01 0.00 0.00 0.00 0.00 0.00 0.00 0.00 0.00 0.00 0.01 0.10 0.15 0.03 0.04 0.06 0.11 0.12 0.17 0.23 0.27 0.40 0.45 0.74 0.98 0.52 0.21 0.10 0.04 0.15 0.31 0.37 0.71 1.31 2.00 1.87 1.77 1.62
0.24 0.13 0.08 0.05 0.07 0.05 0.06 0.03 0.02 0.01 0.01 0.00 0.00 0.00 0.01 0.02 0.00 0.00 0.00 0.05 0.09 0.00 0.01 0.02 0.03 0.02 0.02 0.08 0.15 0.20 0.41 0.65 0.84 1.01 1.11 0.86 0.52 0.28 0.34 0.44 0.49 0.37 0.80 1.80 1.78 0.90 0.58
0.24 0.21 0.12 0.05 0.07 0.07 0.05 0.04 0.02 0.00 0.00 0.00 0.00 0.00 0.01 0.03 0.01 0.00 0.03 0.07 0.01 0.01 0.04 0.04 0.03 0.01 0.03 0.17 0.23 0.09 0.13 0.45 0.92 1.32 1.87 1.66 1.23 0.82 0.59 0.47 0.53 0.67 0.69 0.84 1.32 0.87 0.93
0.23 0.24 0.20 0.09 0.05 0.08 0.07 0.03 0.02 0.01 0.00 0.00 0.00 0.00 0.04 0.01 0.01 0.04 0.10 0.04 0.01 0.01 0.03 0.07 0.10 0.05 0.02 0.06 0.16 0.23 0.18 0.26 0.29 0.54 1.03 1.36 1.17 0.72 0.77 0.91 0.86 0.95 0.92 1.22 1.56 1.75 1.25
0.27 0.25 0.20 0.13 0.07 0.06 0.06 0.03 0.02 0.01 0.00 0.00 0.01 0.03 0.09 0.01 0.07 0.15 0.13 0.06 0.03 0.00 0.01 0.04 0.04 0.05 0.01 0.01 0.02 0.04 0.13 0.27 0.28 0.26 0.32 0.61 0.79 0.41 0.28 0.68 1.26 1.31 1.30 1.43 1.97 2.00 1.26
0.28 0.26 0.21 0.15 0.07 0.04 0.03 0.01 0.01 0.00 0.00 0.01 0.03 0.05 0.08 0.04 0.13 0.14 0.09 0.08 0.05 0.01 0.00 0.01 0.04 0.03 0.04 0.03 0.02 0.03 0.11 0.21 0.11 0.16 0.16 0.21 0.49 0.14 0.12 0.15 0.26 0.47 1.06 1.77 2.13 1.76 1.49
0.24 0.21 0.18 0.12 0.06 0.02 0.02 0.00 0.00 0.00 0.00 0.03 0.03 0.02 0.09 0.09 0.09 0.10 0.10 0.06 0.03 0.02 0.02 0.02 0.04 0.07 0.08 0.09 0.15 0.09 0.16 0.13 0.11 0.12 0.29 0.34 0.42 0.17 0.11 0.17 0.09 0.22 0.45 0.62 0.84 1.10 1.31
0.17 0.13 0.11 0.08 0.04 0.01 0.00 0.00 0.00 0.00 0.00 0.02 0.03 0.03 0.09 0.12 0.10 0.10 0.10 0.07 0.04 0.02 0.03 0.05 0.07 0.07 0.06 0.04 0.11 0.10 0.10 0.14 0.03 0.07 0.09 0.15 0.25 0.27 0.29 0.33 0.25 0.39 0.27 0.24 0.29 0.75 0.85
0.13 0.09 0.08 0.05 0.02 0.01 0.00 0.00 0.00 0.01 0.00 0.03 0.03 0.03 0.07 0.08 0.10 0.13 0.14 0.10 0.06 0.04 0.04 0.05 0.11 0.16 0.25 0.18 0.06 0.05 0.11 0.10 0.07 0.14 0.07 0.06 0.09 0.07 0.05 0.03 0.07 0.18 0.11 0.16 0.38 0.46 0.66
0.09 0.05 0.03 0.01 0.01 0.00 0.00 0.00 0.00 0.00 0.00 0.06 0.05 0.05 0.07 0.06 0.06 0.07 0.11 0.09 0.09 0.05 0.07 0.04 0.05 0.08 0.21 0.28 0.22 0.23 0.17 0.10 0.05 0.06 0.03 0.06 0.05 0.01 0.00 0.00 0.01 0.02 0.03 0.06 0.21 0.37 0.57
0.04 0.01 0.01 0.00 0.00 0.00 0.00 0.00 0.00 0.00 0.02 0.05 0.06 0.06 0.11 0.04 0.05 0.11 0.13 0.12 0.09 0.09 0.04 0.05 0.07 0.06 0.07 0.04 0.03 0.04 0.01 0.01 0.00 0.00 0.00 0.01 0.02 0.02 0.00 0.00 0.00 0.11 0.34 0.21 0.22 0.30 0.33
0.01 0.01 0.00 0.00 0.00 0.00 0.00 0.00 0.00 0.01 0.04 0.06 0.06 0.09 0.09 0.05 0.10 0.12 0.12 0.13 0.08 0.06 0.08 0.03 0.05 0.10 0.06 0.01 0.00 0.00 0.00 0.00 0.00 0.01 0.00 0.01 0.01 0.01 0.01 0.00 0.03 0.37 0.15 0.24 0.22 0.21 0.29
0.00 0.01 0.00 0.00 0.00 0.00 0.00 0.00 0.00 0.00 0.01 0.06 0.13 0.07 0.10 0.09 0.08 0.13 0.10 0.07 0.07 0.05 0.05 0.03 0.03 0.06 0.05 0.04 0.05 0.02 0.00 0.00 0.00 0.00 0.00 0.00 0.02 0.05 0.04 0.02 0.03 0.16 0.12 0.22 0.21 0.19 0.15
0.00 0.00 0.00 0.00 0.00 0.00 0.00 0.00 0.00 0.00 0.00 0.04 0.08 0.10 0.04 0.07 0.07 0.06 0.06 0.09 0.11 0.10 0.10 0.06 0.01 0.00 0.06 0.09 0.07 0.04 0.03 0.04 0.03 0.02 0.02 0.01 0.03 0.06 0.03 0.06 0.13 0.26 0.05 0.04 0.16 0.18 0.10
0.00 0.00 0.00 0.00 0.00 0.00 0.00 0.00 0.00 0.00 0.00 0.01 0.05 0.14 0.07 0.04 0.03 0.05 0.08 0.13 0.16 0.15 0.13 0.16 0.10 0.08 0.12 0.11 0.09 0.09 0.12 0.12 0.15 0.06 0.05 0.10 0.09 0.05 0.06 0.08 0.08 0.06 0.03 0.01 0.27 0.33 0.05
0.00 0.00 0.00 0.00 0.00 0.00 0.00 0.00 0.00 0.00 0.00 0.00 0.02 0.04 0.05 0.04 0.01 0.02 0.05 0.05 0.10 0.12 0.15 0.20 0.09 0.18 0.13 0.15 0.15 0.15 0.17 0.24 0.23 0.14 0.08 0.12 0.23 0.16 0.19 0.25 0.24 0.03 0.03 0.13 0.31 0.11 0.01
0.00 0.00 0.00 0.00 0.00 0.00 0.00 0.00 0.00 0.00 0.00 0.00 0.01 0.03 0.03 0.05 0.01 0.00 0.01 0.02 0.06 0.10 0.11 0.09 0.12 0.12 0.13 0.13 0.22 0.16 0.17 0.33 0.29 0.25 0.15 0.10 0.19 0.26 0.31 0.40 0.16 0.04 0.05 0.01 0.01 0.02 0.00